Weather History for OTBD - January, 2014

Change the Weather History Date:

Wednesday, January 15, 2014

  Actual Average Record
Temperature  
Mean Temperature 62 °F -  
Max Temperature 70 °F 72 °F 78 °F (1997)
Min Temperature 54 °F 56 °F 48 °F (2008)
Degree Days  
Heating Degree Days 3    
Growing Degree Days 12 (Base 50)    
Moisture  
Dew Point 50 °F    
Average Humidity 63    
Maximum Humidity 88    
Minimum Humidity 30    
Precipitation  
Precipitation 0.00 in 0.02 in - ()
Sea Level Pressure  
Sea Level Pressure 30.18 in    
Wind  
Wind Speed 4 mph ()    
Max Wind Speed 7 mph    
Max Gust Speed -    
Visibility 4.7 miles    
Events      
Averages and records for this station are not official NWS values.
T = Trace of Precipitation, MM = Missing Value Source: Averaged Metar Reports

Daily Weather History Graph

Daily Weather History Graph

Search for Another Location

Airport or City:

Trip Planner

Search our weather history database for the weather conditions in past years. The results will help you decide how hot, cold, wet, or windy it might be!

Date:

Astronomy

Jan. 15, 2014 Rise Set
Actual Time 6:21 AM AST 5:05 PM AST
Civil Twilight 5:56 AM AST 5:29 PM AST
Nautical Twilight 5:28 AM AST 5:58 PM AST
Astronomical Twilight 5:00 AM AST 6:25 PM AST
Moon 4:37 PM AST (1/15) 5:25 AM AST (1/15)
Length of Visible Light 11h 33m
Length of Day
10h 44m
Waxing Gibbous, 99% of the Moon is Illuminated
Jan 15
Waxing Gibbous
Jan 16
Full
Jan 24
Last Quarter
Jan 31
New
Feb 6
First Quarter

Hourly Weather History & Observations

Time (AST) Temp. Dew Point Humidity Pressure Visibility Wind Dir Wind Speed Gust Speed Precip Events Conditions
12:00 AM 59 °F 51 °F 67% 30.20 in 6 mi WNW 3.5 mph - -   Haze
12:00 AM 59.0 °F 51.8 °F 77% 30.18 in 5.6 mi WNW 3.5 mph - N/A   Unknown
1:00 AM 59.0 °F 50.0 °F 72% 30.18 in 5.6 mi WNW 3.5 mph - N/A   Unknown
2:00 AM 57.2 °F 50.0 °F 77% 30.18 in 5.6 mi WSW 3.5 mph - N/A   Unknown
3:00 AM 56 °F 51 °F 76% 30.18 in 5 mi WSW 4.6 mph - -   Haze
3:00 AM 55.4 °F 50.0 °F 82% 30.15 in 5.0 mi WSW 4.6 mph - N/A   Unknown
4:00 AM 55.4 °F 50.0 °F 82% 30.15 in 4.3 mi WSW 4.6 mph - N/A   Unknown
5:00 AM 55.4 °F 51.8 °F 88% 30.18 in 3.1 mi West 3.5 mph - N/A   Haze
6:00 AM 55 °F 51 °F 80% 30.20 in 3 mi WSW 4.6 mph - -   Haze
6:00 AM 55.4 °F 50.0 °F 82% 30.18 in 3.1 mi WSW 4.6 mph - N/A   Haze
6:30 AM 55.4 °F 50.0 °F 82% 30.18 in 2.5 mi WSW 3.5 mph - N/A   Haze
7:00 AM 55.4 °F 50.0 °F 82% 30.18 in 2.2 mi WSW 3.5 mph - N/A   Haze
7:30 AM 57.2 °F 50.0 °F 77% 30.21 in 2.2 mi Variable 2.3 mph - N/A   Haze
8:00 AM 59.0 °F 50.0 °F 72% 30.21 in 2.2 mi West 3.5 mph - N/A   Haze
9:00 AM 62 °F 49 °F 53% 30.25 in 4 mi NW 6.9 mph - -   Haze
9:30 AM 62.6 °F 50.0 °F 63% 30.24 in - Variable 4.6 mph - N/A   Clear
10:00 AM 64.4 °F 50.0 °F 59% 30.24 in - NW 4.6 mph - N/A   Clear
10:30 AM 64.4 °F 50.0 °F 59% 30.21 in - NW 3.5 mph - N/A   Clear
11:00 AM 66.2 °F 48.2 °F 52% 30.21 in - North 4.6 mph - N/A   Clear
11:30 AM 66.2 °F 46.4 °F 49% 30.18 in - NW 4.6 mph - N/A   Clear
12:00 PM 68 °F 46 °F 35% 30.18 in 9 mi 5.8 mph - -  
12:00 PM 68.0 °F 46.4 °F 46% 30.18 in - Variable 5.8 mph - N/A   Clear
12:30 PM 68.0 °F 46.4 °F 46% 30.15 in - NW 6.9 mph - N/A   Clear
1:00 PM 68.0 °F 46.4 °F 46% 30.15 in - WNW 6.9 mph - N/A   Clear
1:30 PM 69.8 °F 48.2 °F 46% 30.15 in - WNW 6.9 mph - N/A   Clear
2:00 PM 69.8 °F 46.4 °F 43% 30.15 in - West 4.6 mph - N/A   Clear
2:30 PM 69.8 °F 44.6 °F 40% 30.15 in - Variable 5.8 mph - N/A   Clear
3:00 PM 70 °F 46 °F 30% 30.17 in 7 mi NW 4.6 mph - -  
3:00 PM 69.8 °F 46.4 °F 43% 30.15 in - NW 4.6 mph - N/A   Clear
4:00 PM 68.0 °F 44.6 °F 43% 30.15 in - WNW 3.5 mph - N/A   Clear
4:30 PM 68.0 °F 44.6 °F 43% 30.15 in - WSW 3.5 mph - N/A   Clear
5:00 PM 68.0 °F 46.4 °F 46% 30.15 in - Variable 2.3 mph - N/A   Clear
5:30 PM 64.4 °F 51.8 °F 64% 30.18 in - SE 6.9 mph - N/A   Clear
6:00 PM 64 °F 53 °F 58% 30.19 in 7 mi SE 5.8 mph - -   Scattered Clouds
6:00 PM 64.4 °F 53.6 °F 68% 30.18 in - SE 5.8 mph - N/A   Clear
6:30 PM 64.4 °F 51.8 °F 64% 30.18 in - SE 5.8 mph - N/A   Clear
7:00 PM 62.6 °F 51.8 °F 68% 30.18 in - SSE 4.6 mph - N/A   Clear
8:00 PM 62.6 °F 51.8 °F 68% 30.21 in - SSW 3.5 mph - N/A   Clear
9:00 PM 62 °F 52 °F 61% 30.23 in 7 mi 2.3 mph - -  
9:00 PM 60.8 °F 51.8 °F 72% 30.21 in - Variable 2.3 mph - N/A   Clear
9:30 PM 60.8 °F 51.8 °F 72% 30.21 in - Variable 2.3 mph - N/A   Clear
10:00 PM 60.8 °F 51.8 °F 72% 30.21 in - Calm Calm - N/A   Clear
10:30 PM 59.0 °F 51.8 °F 77% 30.21 in - Calm Calm - N/A   Clear
11:00 PM 59.0 °F 51.8 °F 77% 30.18 in - Calm Calm - N/A   Clear
11:30 PM 59.0 °F 51.8 °F 77% 30.18 in - Calm Calm - N/A   Clear